Flag for Canada Weather past 2 weeks in Camrose, Alberta, Canada

Now
14 °F

Clear.


Feels Like: 4 °F
Forecast: 13 / 22 °F
Wind: 7 mph from Southeast

Location: Edmonton International

Current Time: Dec 18, 2014 at 9:23:01 PM

Latest Report: Dec 18, 2014 at 9:00 PM


Visibility: 12 mi

Pressure: 29.97 "Hg

Humidity: 85%

Dew point: 10 °F

Location of CamroseLocation

Historic Weather in Camrose — Graph

°F

Camrose temperature yesterday

Maximum temperature yesterday: 23 °F (at 1:00 AM)
Minimum temperature yesterday: 16 °F (at 11:00 PM)
Average temperature yesterday: 21 °F

Past Weeks' High & Low Weather Summary

 TemperatureHumidityPressure
High48 °F (Dec 9, 7:00 PM)93% (Dec 7, 9:55 AM)30.44 "Hg (Dec 7, 9:55 AM)
Low-6 °F (Dec 5, 9:00 AM)50% (Dec 9, 10:00 PM)29.22 "Hg (Dec 11, 4:00 AM)
Average21 °F82%29.98 "Hg
* Reported Dec 3 8:00 PM — Dec 18 8:00 PM, Camrose, Weather by CustomWeather, © 2014

Note: Actual official high and low records may vary slightly from our data, if they occured in-between our weather recording intervals... More about our weather records

Advertising

Camrose weather history for previous 24 hours

 ConditionsComfort  
Time TempWeatherWind HumidityBarometerVisibility
8:00 PM
Dec 18
16 °FClear.9 mph86%29.96 "Hg12 mi
7:00 PM16 °FClear.3 mph86%29.98 "Hg12 mi
6:00 PM14 °FPassing clouds.5 mph85%29.97 "Hg12 mi
5:00 PM14 °FPassing clouds.9 mph92%29.97 "Hg8 mi
4:00 PM19 °FPassing clouds.3 mph86%29.96 "Hg10 mi
3:00 PM19 °FPassing clouds.5 mph93%29.96 "Hg10 mi
2:00 PM19 °FPassing clouds.6 mph93%29.95 "Hg7 mi
1:00 PM18 °FScattered clouds.3 mph93%29.96 "Hg7 mi
12:00 PM16 °FIce fog.2 mph86%29.98 "Hg6 mi
11:00 AM14 °FIce fog.2 mph92%29.97 "Hg4 mi
10:00 AM10 °FIce fog.3 mph92%29.99 "Hg5 mi
9:00 AM10 °FIce fog.6 mph85%29.98 "Hg6 mi
8:00 AM9 °FIce fog.6 mph85%29.98 "Hg6 mi
7:00 AM9 °FIce fog.No wind85%29.98 "Hg2 mi
6:52 AM9 °FLight snow. Ice fog.2 mph85%29.98 "Hg1 mi
6:00 AM12 °FIce fog.2 mph85%29.97 "Hg0 mi
5:00 AM14 °FIce fog.3 mph85%29.97 "Hg0 mi
4:00 AM12 °FIce fog.No wind85%29.98 "Hg0 mi
3:00 AM14 °FIce fog.6 mph85%29.97 "Hg0 mi
2:00 AM14 °FIce fog.5 mph92%29.96 "Hg0 mi
1:00 AM14 °FIce fog.3 mph92%29.96 "Hg0 mi
12:00 AM16 °FIce fog.5 mph93%29.96 "Hg0 mi
11:00 PM
Dec 17
16 °FCold.5 mph93%29.97 "Hg1 mi
10:00 PM18 °FIce fog.6 mph93%29.96 "Hg1 mi
9:00 PM19 °FIce fog.7 mph93%29.96 "Hg2 mi
Weather by CustomWeather, © 2014

See weather overviewHow to use our weather pages